Retour au catalogue

SJ-26

ActifScienceSSO
NORAD 64199·PAYLOAD·🇨🇳 China

Lancé May 29, 2025 depuis Jiuquan Satellite Launch Center

Loading…

Prochains Passages (prochaines 24 heures)

TLE

FraisSource: Space-Track

Époque: Sep 14, 2026, 03:49 UTC

1 64199U 25115A   26257.15936767  .00004057  00000-0  16742-3 0  9998
2 64199  97.4496 335.1697 0019579  43.8849 316.3940 15.24444227 71998

Suivez SJ-26 en temps réel avec AllMySat

Download on the App Store